DW8219 Weather Reports


Display with metric or nautical units.
time (UTC)temp
F
wind
direction
speed
MPH
gust
MPH
rain 1hr
in
rain 24hr
in
rain mn
in
humidity
%
barometer
mb
20260510062905 51 137 0.0 0.0 0.00 0.23 0.00 96 1009.6
20260510062404 51 136 0.0 0.0 0.00 0.23 0.00 96 1009.4
20260510060904 51 136 0.0 0.0 0.00 0.23 0.00 96 1009.4
20260510060404 51 136 0.0 0.0 0.00 0.23 0.00 95 1009.4
20260510055904 50 136 0.0 0.0 0.00 0.23 0.00 96 1009.5
20260510055404 50 136 0.0 0.0 0.00 0.23 0.00 96 1009.4
20260510054904 50 136 0.0 0.0 0.00 0.23 0.00 96 1009.5
20260510054404 50 136 0.0 0.0 0.00 0.23 0.00 96 1009.5
20260510053904 50 136 0.0 0.0 0.00 0.23 0.00 96 1009.5
20260510052904 50 136 0.0 0.0 0.00 0.23 0.00 95 1009.5
20260510052404 49 136 0.0 0.0 0.00 0.23 0.00 96 1009.6
20260510051904 49 137 0.0 0.0 0.00 0.23 0.00 95 1009.6
20260510051405 49 137 0.0 0.0 0.00 0.23 0.00 95 1009.6
20260510050404 49 137 0.0 0.0 0.00 0.23 0.00 95 1009.8
20260510045904 49 137 0.0 0.0 0.00 0.23 0.00 95 1009.7
20260510045405 49 137 0.0 0.0 0.00 0.23 0.00 95 1009.7
20260510044906 49 137 0.0 0.0 0.00 0.23 0.00 95 1009.8
20260510043905 50 137 0.0 0.0 0.00 0.23 0.00 95 1009.8
20260510043404 50 137 0.0 0.0 0.00 0.23 0.00 95 1009.8
20260510042905 50 137 0.0 0.0 0.00 0.23 0.00 95 1009.8
20260510042405 50 137 0.0 0.0 0.00 0.23 0.00 95 1009.8
20260510041905 50 137 0.0 0.0 0.00 0.23 0.00 95 1009.7
20260510041404 50 137 0.0 0.0 0.00 0.23 0.00 95 1009.7
20260510035905 50 137 0.0 0.0 0.00 0.23 0.23 95 1009.5
20260510035405 50 137 0.0 0.0 0.00 0.23 0.23 95 1009.6
20260510034906 50 137 0.0 0.0 0.00 0.23 0.23 95 1009.5
20260510033906 50 137 0.0 0.0 0.00 0.23 0.23 95 1009.4
20260510033405 50 137 0.0 0.0 0.00 0.23 0.23 94 1009.4
20260510032905 50 137 0.0 0.0 0.00 0.23 0.23 95 1009.3
20260510032405 50 137 0.0 0.0 0.00 0.23 0.23 94 1009.4
20260510031904 50 137 0.0 0.0 0.00 0.23 0.23 95 1009.3
20260510031405 50 137 0.0 0.0 0.00 0.23 0.23 95 1009.4
20260510030905 50 137 0.0 0.0 0.00 0.23 0.23 95 1009.4
20260510030405 50 137 0.0 0.0 0.00 0.23 0.23 94 1009.4
20260510025905 50 137 0.0 0.0 0.00 0.23 0.23 94 1009.4
20260510025406 51 137 0.0 0.0 0.00 0.23 0.23 94 1009.3
20260510024905 51 137 0.0 0.0 0.00 0.23 0.23 94 1009.4
20260510024405 51 137 0.0 0.0 0.00 0.23 0.23 94 1009.5
20260510023904 51 137 0.0 0.0 0.00 0.23 0.23 94 1009.5
20260510023403 51 137 0.0 0.0 0.00 0.23 0.23 94 1009.5
20260510022904 51 137 0.0 0.0 0.00 0.23 0.23 94 1009.5
20260510021903 51 137 0.0 0.0 0.00 0.23 0.23 94 1009.5
20260510021404 51 137 0.0 0.0 0.00 0.23 0.23 94 1009.4
20260510020904 51 137 0.0 0.0 0.00 0.23 0.23 94 1009.4
20260510015903 51 137 0.0 0.0 0.00 0.23 0.23 94 1009.4
20260510015405 51 137 0.0 0.0 0.00 0.23 0.23 94 1009.4
20260510014404 51 137 0.0 0.0 0.00 0.23 0.23 94 1009.4
20260510013904 51 137 0.0 0.0 0.00 0.23 0.23 94 1009.5
20260510012903 52 137 0.0 0.0 0.00 0.23 0.23 93 1009.4
20260510012404 52 137 0.0 0.0 0.00 0.23 0.23 94 1009.2
20260510011905 52 137 0.0 0.0 0.00 0.23 0.23 93 1009.1
20260510010904 52 137 0.0 0.0 0.00 0.23 0.23 93 1009.0
20260510005904 52 137 0.0 0.0 0.00 0.23 0.23 93 1008.8
20260510005404 52 137 0.0 0.0 0.00 0.23 0.23 93 1008.8
20260510004904 52 137 0.0 0.0 0.00 0.23 0.23 93 1008.9
20260510004404 52 137 0.0 0.0 0.00 0.23 0.23 93 1008.9
20260510003905 53 137 0.0 0.0 0.00 0.23 0.23 93 1009.0
20260510003404 53 137 0.0 0.0 0.00 0.23 0.23 92 1008.9
20260510002904 53 137 0.0 0.0 0.00 0.23 0.23 92 1008.8
20260510002404 53 137 0.0 0.0 0.00 0.23 0.23 93 1008.7
20260510001904 53 137 0.0 0.0 0.00 0.23 0.23 92 1008.7
20260510000904 54 137 0.0 0.0 0.00 0.23 0.23 92 1008.7
20260510000404 54 137 0.0 0.0 0.00 0.23 0.23 92 1008.7
20260509235404 54 138 0.0 2.0 0.00 0.23 0.23 92 1008.4
20260509234905 54 132 1.0 3.0 0.00 0.23 0.23 92 1008.4
20260509233904 54 137 0.0 0.0 0.00 0.23 0.23 91 1008.4
20260509233404 54 138 0.0 0.0 0.00 0.23 0.23 91 1008.5
20260509232905 54 138 0.0 0.0 0.00 0.23 0.23 91 1008.6
20260509232404 55 138 0.0 0.0 0.00 0.23 0.23 91 1008.6
20260509231404 55 138 0.0 0.0 0.00 0.23 0.23 91 1008.6
20260509230905 55 138 0.0 0.0 0.00 0.23 0.23 91 1008.7
20260509230404 55 138 0.0 0.0 0.00 0.23 0.23 91 1008.9
20260509225904 55 139 0.0 0.0 0.01 0.23 0.23 92 1008.8
20260509225404 55 142 0.0 0.0 0.06 0.23 0.23 92 1008.9
20260509224904 55 142 0.0 0.0 0.08 0.23 0.23 92 1008.9
20260509224404 54 142 0.0 0.0 0.10 0.23 0.23 92 1009.0
20260509223905 54 143 0.0 0.0 0.12 0.23 0.23 91 1009.1
20260509223404 54 143 0.0 0.0 0.12 0.23 0.23 91 1009.0
20260509221905 54 114 0.0 0.0 0.14 0.23 0.23 91 1009.1
20260509221404 54 103 0.0 0.0 0.14 0.23 0.23 91 1009.1
20260509220404 54 103 0.0 0.0 0.14 0.23 0.23 91 1009.1
20260509215905 54 105 0.0 0.0 0.13 0.22 0.22 91 1009.2
20260509215405 54 170 0.0 0.0 0.09 0.17 0.17 90 1009.6
20260509214904 54 169 0.0 0.0 0.07 0.15 0.15 90 1009.4
20260509214404 54 170 0.0 0.0 0.05 0.13 0.13 89 1009.1
20260509213905 55 169 0.0 0.0 0.03 0.11 0.11 89 1009.3
20260509213405 55 169 0.0 0.0 0.03 0.11 0.11 89 1009.1
20260509212904 55 169 0.0 0.0 0.02 0.10 0.10 88 1009.1
20260509212405 55 180 0.0 0.0 0.02 0.10 0.10 87 1009.7
20260509211905 55 227 0.0 0.0 0.02 0.09 0.09 87 1009.3
20260509211404 55 227 0.0 0.0 0.02 0.09 0.09 87 1009.2
20260509210404 55 260 0.0 0.0 0.02 0.09 0.09 88 1008.9
20260509205905 55 261 0.0 0.0 0.02 0.09 0.09 88 1009.3
20260509205404 55 261 0.0 0.0 0.02 0.08 0.08 87 1009.3
20260509204904 55 261 0.0 0.0 0.02 0.08 0.08 86 1009.3
20260509203405 55 261 0.0 0.0 0.02 0.08 0.08 86 1009.6
20260509202904 56 261 0.0 0.0 0.02 0.08 0.08 86 1009.7
20260509202404 56 283 0.0 0.0 0.02 0.08 0.08 86 1009.7
20260509201904 56 283 1.0 7.0 0.01 0.07 0.07 85 1009.7
20260509201404 56 267 1.0 6.0 0.01 0.07 0.07 86 1009.8
20260509200904 56 319 0.0 6.0 0.01 0.07 0.07 86 1009.7
20260509195904 56 268 1.0 9.0 0.01 0.07 0.07 84 1009.7
20260509195403 57 315 0.0 0.0 0.01 0.06 0.06 84 1009.7
20260509194904 57 321 0.0 0.0 0.01 0.06 0.06 85 1009.6
20260509194404 57 261 0.0 0.0 0.01 0.06 0.06 86 1009.6
20260509193904 57 318 0.0 0.0 0.01 0.06 0.06 86 1009.4
20260509193404 57 319 0.0 0.0 0.02 0.06 0.06 87 1009.3
20260509192904 57 319 0.0 0.0 0.02 0.06 0.06 86 1009.2
20260509192404 57 323 0.0 0.0 0.02 0.06 0.06 87 1009.1
20260509191905 57 323 0.0 0.0 0.03 0.06 0.06 87 1009.1
20260509191405 57 292 0.0 0.0 0.03 0.06 0.06 87 1009.1
20260509190903 57 293 0.0 0.0 0.03 0.06 0.06 86 1009.3
20260509190404 57 293 0.0 0.0 0.04 0.06 0.06 84 1009.6
20260509185904 57 292 0.0 0.0 0.05 0.06 0.06 84 1009.8
20260509185404 57 292 0.0 0.0 0.05 0.05 0.05 84 1009.7
20260509183405 58 305 0.0 3.0 0.04 0.04 0.04 84 1009.9
20260509182904 58 287 1.0 8.0 0.04 0.04 0.04 84 1009.8
20260509182404 58 264 2.0 8.0 0.04 0.04 0.04 83 1009.8
20260509181904 58 274 5.0 13.0 0.03 0.03 0.03 82 1009.6
20260509181405 58 256 1.0 9.0 0.03 0.03 0.03 81 1009.3
20260509180404 58 255 9.0 17.0 0.02 0.02 0.02 75 1009.3
20260509175905 59 275 7.0 21.0 0.01 0.01 0.01 73 1009.6
20260509175404 61 268 10.0 21.0 0.00 0.00 0.00 70 1009.1
20260509174905 62 279 5.0 10.0 0.00 0.00 0.00 70 1009.1
20260509174404 62 257 5.0 12.0 0.00 0.00 0.00 70 1009.2
20260509173904 62 244 5.0 8.0 0.00 0.00 0.00 71 1009.0
20260509172905 63 255 7.0 12.0 0.00 0.00 0.00 67 1008.9
20260509172404 64 270 6.0 12.0 0.00 0.00 0.00 63 1008.9
20260509171904 65 236 4.0 9.0 0.00 0.00 0.00 62 1008.9
20260509171404 65 251 0.0 7.0 0.00 0.00 0.00 63 1009.0
20260509170905 66 250 6.0 10.0 0.00 0.00 0.00 62 1009.0
20260509165904 65 249 7.0 15.0 0.00 0.00 0.00 62 1009.1
20260509164905 64 226 4.0 10.0 0.00 0.00 0.00 62 1009.2
20260509163905 64 215 6.0 12.0 0.00 0.00 0.00 63 1009.4
20260509162904 64 219 2.0 7.0 0.00 0.00 0.00 62 1009.6
20260509161405 64 283 2.0 8.0 0.00 0.00 0.00 64 1009.8
20260509160904 63 196 5.0 8.0 0.00 0.00 0.00 65 1009.9
20260509160404 63 202 5.0 16.0 0.00 0.00 0.00 64 1010.1
20260509155905 63 238 7.0 13.0 0.00 0.00 0.00 64 1010.2
20260509155405 63 203 5.0 10.0 0.00 0.00 0.00 63 1010.2
20260509154405 64 252 6.0 12.0 0.00 0.00 0.00 65 1010.4
20260509153905 63 195 3.0 13.0 0.00 0.00 0.00 64 1010.4
20260509153406 63 227 8.0 13.0 0.00 0.00 0.00 65 1010.4
20260509152405 62 216 7.0 12.0 0.00 0.00 0.00 66 1010.3
20260509151906 62 196 2.0 8.0 0.00 0.00 0.00 66 1010.5
20260509151404 62 234 5.0 13.0 0.00 0.00 0.00 67 1010.5
20260509150404 61 177 1.0 6.0 0.00 0.00 0.00 68 1010.3
20260509145906 60 204 3.0 9.0 0.00 0.00 0.00 68 1010.2
20260509145404 60 219 4.0 12.0 0.00 0.00 0.00 69 1010.5
20260509144905 60 207 4.0 14.0 0.00 0.00 0.00 69 1010.5
20260509144405 60 209 2.0 10.0 0.00 0.00 0.00 70 1010.4
20260509143404 60 183 3.0 6.0 0.00 0.00 0.00 70 1010.5
20260509142904 59 195 2.0 8.0 0.00 0.00 0.00 70 1010.5
20260509141904 59 195 3.0 8.0 0.00 0.00 0.00 71 1010.3
20260509141404 59 168 3.0 7.0 0.00 0.00 0.00 72 1010.4
20260509140904 59 185 1.0 7.0 0.00 0.00 0.00 72 1010.5
20260509140403 59 186 3.0 7.0 0.00 0.00 0.00 72 1010.3
20260509135904 59 206 1.0 6.0 0.00 0.00 0.00 72 1010.4
20260509135404 59 236 4.0 7.0 0.00 0.00 0.00 73 1010.3
20260509134903 58 159 2.0 10.0 0.00 0.00 0.00 72 1010.4
20260509134404 59 161 2.0 7.0 0.00 0.00 0.00 73 1010.5
20260509133404 58 182 6.0 12.0 0.00 0.00 0.00 74 1010.4
20260509132904 58 238 2.0 6.0 0.00 0.00 0.00 75 1010.3
20260509132404 58 197 0.0 2.0 0.00 0.00 0.00 77 1010.4
20260509131404 57 193 2.0 3.0 0.00 0.00 0.00 77 1010.7
20260509130904 57 161 1.0 5.0 0.00 0.00 0.00 75 1010.6
20260509130405 56 147 3.0 6.0 0.00 0.00 0.00 76 1010.6
20260509125904 56 124 1.0 5.0 0.00 0.00 0.00 77 1010.8
20260509125404 56 185 1.0 5.0 0.00 0.00 0.00 77 1010.9
20260509124904 56 175 1.0 5.0 0.00 0.00 0.00 78 1010.4
20260509124405 56 165 0.0 3.0 0.00 0.00 0.00 79 1010.4
20260509123904 55 96 0.0 0.0 0.00 0.00 0.00 80 1010.6
20260509123404 55 107 0.0 0.0 0.00 0.00 0.00 82 1011.0
20260509122904 55 106 0.0 0.0 0.00 0.00 0.00 82 1011.0
20260509122405 55 106 0.0 0.0 0.00 0.00 0.00 82 1011.0
20260509121904 54 106 0.0 0.0 0.00 0.00 0.00 82 1011.0
20260509121404 54 106 0.0 0.0 0.00 0.00 0.00 82 1010.6
20260509120905 54 106 0.0 0.0 0.00 0.00 0.00 82 1010.7
20260509120405 54 119 0.0 0.0 0.00 0.00 0.00 82 1011.0
20260509115905 54 119 0.0 0.0 0.00 0.00 0.00 81 1011.0
20260509115404 54 119 0.0 0.0 0.00 0.00 0.00 81 1010.9
20260509114905 53 119 0.0 0.0 0.00 0.00 0.00 81 1011.1
20260509113904 53 65 0.0 0.0 0.00 0.00 0.00 82 1010.8
20260509112905 53 67 0.0 0.0 0.00 0.00 0.00 82 1011.0
20260509112404 53 66 0.0 0.0 0.00 0.00 0.00 83 1011.1
20260509111905 53 67 0.0 0.0 0.00 0.00 0.00 82 1011.1
20260509111405 53 67 0.0 0.0 0.00 0.00 0.00 82 1011.1
20260509110905 53 67 0.0 0.0 0.00 0.00 0.00 82 1011.2
20260509110404 53 66 0.0 0.0 0.00 0.00 0.00 81 1010.6
20260509105904 52 65 0.0 0.0 0.00 0.00 0.00 81 1010.9
20260509105404 52 65 0.0 0.0 0.00 0.00 0.00 81 1010.9
20260509104904 52 65 0.0 0.0 0.00 0.00 0.00 82 1010.6
20260509104404 52 65 0.0 0.0 0.00 0.00 0.00 82 1010.7
20260509103905 52 65 0.0 0.0 0.00 0.00 0.00 82 1010.7
20260509103405 52 65 0.0 0.0 0.00 0.00 0.00 83 1010.6
20260509102905 52 65 0.0 0.0 0.00 0.00 0.00 83 1010.6
20260509101905 52 65 0.0 0.0 0.00 0.00 0.00 83 1010.6
20260509100904 52 65 0.0 0.0 0.00 0.00 0.00 83 1010.5
20260509100405 52 66 0.0 0.0 0.00 0.00 0.00 82 1010.5
20260509095405 52 66 0.0 0.0 0.00 0.00 0.00 83 1010.5
20260509094905 52 66 0.0 0.0 0.00 0.00 0.00 82 1010.5
20260509093904 52 66 0.0 0.0 0.00 0.00 0.00 82 1010.5
20260509093405 52 66 0.0 0.0 0.00 0.00 0.00 82 1010.4
20260509092905 52 66 0.0 0.0 0.00 0.00 0.00 81 1010.4
20260509092404 52 66 0.0 0.0 0.00 0.00 0.00 81 1010.3
20260509091905 52 66 0.0 0.0 0.00 0.00 0.00 81 1010.4
20260509091405 52 66 0.0 0.0 0.00 0.00 0.00 80 1010.5
20260509090905 52 66 0.0 0.0 0.00 0.00 0.00 80 1010.6
20260509090404 52 66 0.0 0.0 0.00 0.00 0.00 80 1010.5
20260509085904 52 66 0.0 0.0 0.00 0.00 0.00 80 1010.5
20260509084905 52 79 0.0 0.0 0.00 0.00 0.00 79 1010.5
20260509084405 52 80 0.0 0.0 0.00 0.00 0.00 78 1010.6
20260509083905 53 80 0.0 0.0 0.00 0.00 0.00 78 1010.6
20260509082904 53 103 0.0 0.0 0.00 0.01 0.00 76 1010.5
20260509082404 53 103 0.0 0.0 0.00 0.01 0.00 76 1010.6
20260509081903 53 103 0.0 0.0 0.00 0.01 0.00 76 1010.7
20260509081404 53 103 0.0 0.0 0.00 0.01 0.00 76 1010.7
20260509080904 53 103 0.0 0.0 0.00 0.01 0.00 76 1010.8
20260509080404 53 103 0.0 0.0 0.00 0.01 0.00 75 1010.8
20260509075905 53 103 0.0 0.0 0.00 0.01 0.00 75 1010.8
20260509075403 53 103 0.0 0.0 0.00 0.01 0.00 74 1010.9
20260509074904 53 103 0.0 0.0 0.00 0.01 0.00 74 1010.9
20260509074404 53 103 0.0 0.0 0.00 0.01 0.00 75 1011.0
20260509073903 53 103 0.0 0.0 0.00 0.01 0.00 76 1011.0
20260509073404 53 103 0.0 0.0 0.00 0.01 0.00 75 1010.9
20260509072904 53 103 0.0 0.0 0.00 0.01 0.00 76 1010.8
20260509072404 53 103 0.0 0.0 0.00 0.01 0.00 75 1010.6
20260509071904 53 103 0.0 0.0 0.00 0.01 0.00 75 1010.7
20260509071404 53 103 0.0 0.0 0.00 0.01 0.00 74 1010.5
20260509070904 54 103 0.0 0.0 0.00 0.01 0.00 74 1010.5
20260509070404 54 103 0.0 0.0 0.00 0.01 0.00 73 1010.5
20260509065904 54 103 0.0 0.0 0.00 0.01 0.00 74 1010.5
20260509065404 54 103 0.0 0.0 0.00 0.01 0.00 74 1010.5
20260509064904 54 103 0.0 1.0 0.00 0.01 0.00 73 1010.5
20260509064404 54 104 0.0 2.0 0.00 0.01 0.00 73 1010.5
20260509063904 54 123 0.0 1.0 0.00 0.01 0.00 74 1010.7